Location: Basse Occidentale du Courleau
(48.3833°N, 4.8333°W)
Time: 19:45:33
(UTC+00:00)

Cosmos 2369 Rocket - Pass Details

Date: 05 July 2020
Orbit: 830 x 851 km, 71.0° (Epoch: 05 August)

Event Time Altitude Azimuth Distance (km) Brightness Sun altitude
Rises 23:36:08 0° 335° (NNW) 3,384 6.9 -18.1°
Reaches altitude 10° 23:38:48 10° 345° (NNW) 2,447 5.9 -18.2°
Maximum altitude 23:43:54 35° 50° (NE) 1,327 3.5 -18.4°
Enters shadow 23:48:39 12° 114° (ESE) 2,331 4.2 -18.5°
